Meteo pe oră la Działoszyn

Astăzi, 7 Martie, Duminică

Timp Temperatura Precipitaţii Vânt Presiune Umiditate
00:00 -2°C° 0 mm 5 m/s 751 mmHg 75%
01:00 -2°C° 0 mm 5 m/s 751 mmHg 79%
02:00 -2°C° 0 mm 5 m/s 750 mmHg 79%
03:00 -3°C° 0 mm 6 m/s 750 mmHg 80%
04:00 -3°C° 0 mm 6 m/s 749 mmHg 80%
05:00 -3°C° 0 mm 6 m/s 749 mmHg 78%
06:00 -2°C° 0 mm 6 m/s 749 mmHg 75%
07:00 -2°C° 0 mm 7 m/s 749 mmHg 73%
08:00 -2°C° 0 mm 7 m/s 748 mmHg 72%
09:00 -1°C° 0 mm 7 m/s 748 mmHg 71%
10:00 -1°C° 0 mm 8 m/s 747 mmHg 71%
11:00 0°C° 0 mm 8 m/s 747 mmHg 68%
12:00 0°C° 0 mm 8 m/s 747 mmHg 66%
13:00 0°C° 0 mm 8 m/s 746 mmHg 64%
14:00 0°C° 0 mm 7 m/s 746 mmHg 64%
15:00 0°C° 0 mm 7 m/s 745 mmHg 64%
16:00 0°C° 0 mm 7 m/s 745 mmHg 65%
17:00 -1°C° 0 mm 6 m/s 745 mmHg 70%
18:00 -1°C° 0 mm 5 m/s 745 mmHg 75%
19:00 -2°C° 0 mm 4 m/s 744 mmHg 80%
20:00 -2°C° 0 mm 4 m/s 744 mmHg 81%
21:00 -2°C° 0 mm 4 m/s 744 mmHg 81%
22:00 -4°C° 0 mm 5 m/s 744 mmHg 82%
23:00 -4°C° 0 mm 5 m/s 744 mmHg 85%

Mâine, 8 Martie, Luni

Timp Temperatura Precipitaţii Vânt Presiune Umiditate
00:00 -4°C° 0 mm 5 m/s 744 mmHg 87%
01:00 -4°C° 0 mm 5 m/s 744 mmHg 90%
02:00 -4°C° 0.4 mm 5 m/s 744 mmHg 90%
03:00 -4°C° 0.4 mm 5 m/s 744 mmHg 91%
04:00 -3°C° 0.4 mm 4 m/s 744 mmHg 91%
05:00 -2°C° 0.1 mm 3 m/s 744 mmHg 86%
06:00 -4°C° 0.1 mm 3 m/s 745 mmHg 81%
07:00 -3°C° 0.1 mm 2 m/s 745 mmHg 76%
08:00 -2°C° 0 mm 2 m/s 745 mmHg 69%
09:00 -1°C° 0 mm 3 m/s 746 mmHg 61%
10:00 0°C° 0 mm 3 m/s 746 mmHg 54%
11:00 0°C° 0 mm 3 m/s 746 mmHg 50%
12:00 +1°C° 0 mm 3 m/s 747 mmHg 47%
13:00 +1°C° 0 mm 3 m/s 747 mmHg 43%
14:00 +1°C° 0 mm 3 m/s 747 mmHg 46%
15:00 +1°C° 0 mm 3 m/s 747 mmHg 49%
16:00 +1°C° 0 mm 3 m/s 747 mmHg 52%
17:00 0°C° 0 mm 3 m/s 747 mmHg 58%
18:00 -1°C° 0 mm 2 m/s 747 mmHg 65%
19:00 -2°C° 0 mm 2 m/s 748 mmHg 71%
20:00 0°C° 0 mm 1 m/s 748 mmHg 72%
21:00 -1°C° 0 mm 1 m/s 748 mmHg 74%
22:00 -1°C° 0 mm 1 m/s 748 mmHg 75%
23:00 -1°C° 0 mm 1 m/s 748 mmHg 75%

Poimâine, 9 Martie, Marţi

Timp Temperatura Precipitaţii Vânt Presiune Umiditate
00:00 -1°C° 0 mm 1 m/s 748 mmHg 76%
01:00 -1°C° 0 mm 1 m/s 748 mmHg 76%
02:00 -1°C° 0 mm 1 m/s 748 mmHg 76%
03:00 -1°C° 0 mm 1 m/s 748 mmHg 75%
04:00 -1°C° 0 mm 1 m/s 748 mmHg 75%
05:00 -1°C° 0 mm 1 m/s 748 mmHg 74%
06:00 -1°C° 0 mm 1 m/s 748 mmHg 74%
07:00 -3°C° 0 mm 2 m/s 749 mmHg 73%
08:00 -2°C° 0 mm 2 m/s 749 mmHg 69%
09:00 -2°C° 0 mm 2 m/s 749 mmHg 64%
10:00 -1°C° 0 mm 2 m/s 749 mmHg 60%
11:00 -1°C° 0 mm 2 m/s 749 mmHg 56%
12:00 +1°C° 0 mm 2 m/s 749 mmHg 51%
13:00 +1°C° 0 mm 2 m/s 749 mmHg 47%
14:00 +1°C° 0 mm 2 m/s 748 mmHg 47%
15:00 +2°C° 0 mm 1 m/s 748 mmHg 46%
16:00 +2°C° 0 mm 1 m/s 748 mmHg 46%
17:00 +1°C° 0 mm 1 m/s 748 mmHg 50%
18:00 -2°C° 0 mm 2 m/s 748 mmHg 54%
19:00 -3°C° 0 mm 2 m/s 749 mmHg 58%
20:00 -3°C° 0 mm 2 m/s 749 mmHg 58%
21:00 -3°C° 0 mm 2 m/s 749 mmHg 59%
22:00 -3°C° 0 mm 2 m/s 749 mmHg 59%
23:00 -3°C° 0 mm 2 m/s 749 mmHg 58%

10 Martie, Miercuri

Timp Temperatura Precipitaţii Vânt Presiune Umiditate
00:00 -3°C° 0 mm 2 m/s 749 mmHg 57%
01:00 -1°C° 0 mm 1 m/s 749 mmHg 56%
02:00 -1°C° 0 mm 1 m/s 749 mmHg 56%
03:00 -1°C° 0 mm 1 m/s 749 mmHg 57%
04:00 -1°C° 0 mm 1 m/s 748 mmHg 57%
05:00 -1°C° 0 mm 1 m/s 749 mmHg 57%
06:00 -1°C° 0 mm 1 m/s 749 mmHg 58%
07:00 0°C° 0 mm 1 m/s 749 mmHg 59%
08:00 +1°C° 0 mm 1 m/s 749 mmHg 55%
09:00 +2°C° 0 mm 1 m/s 749 mmHg 51%
10:00 +2°C° 0 mm 2 m/s 749 mmHg 47%
11:00 +2°C° 0 mm 2 m/s 749 mmHg 44%
12:00 +3°C° 0 mm 2 m/s 749 mmHg 41%
13:00 +4°C° 0 mm 2 m/s 749 mmHg 38%
14:00 +4°C° 0 mm 2 m/s 748 mmHg 40%
15:00 +4°C° 0 mm 2 m/s 748 mmHg 41%
16:00 +4°C° 0 mm 2 m/s 747 mmHg 43%
17:00 +2°C° 0 mm 3 m/s 747 mmHg 48%
18:00 0°C° 0 mm 3 m/s 747 mmHg 52%
19:00 -1°C° 0 mm 3 m/s 747 mmHg 56%
20:00 -2°C° 0 mm 4 m/s 747 mmHg 57%
21:00 -2°C° 0 mm 4 m/s 747 mmHg 57%
22:00 -2°C° 0 mm 4 m/s 747 mmHg 57%
23:00 -2°C° 0 mm 5 m/s 746 mmHg 60%

11 Martie, Joi

Timp Temperatura Precipitaţii Vânt Presiune Umiditate
00:00 -1°C° 0 mm 5 m/s 746 mmHg 63%
01:00 -1°C° 0 mm 5 m/s 745 mmHg 66%
02:00 -2°C° 0 mm 6 m/s 744 mmHg 68%
03:00 -1°C° 0 mm 6 m/s 744 mmHg 70%
04:00 -1°C° 0 mm 7 m/s 743 mmHg 71%
05:00 -1°C° 0 mm 7 m/s 742 mmHg 70%
06:00 0°C° 0 mm 8 m/s 741 mmHg 69%
07:00 0°C° 0 mm 9 m/s 741 mmHg 67%
08:00 0°C° 0.1 mm 9 m/s 740 mmHg 71%
09:00 +1°C° 0.1 mm 9 m/s 740 mmHg 75%
10:00 +1°C° 0.1 mm 10 m/s 739 mmHg 79%
11:00 +1°C° 0.3 mm 10 m/s 739 mmHg 80%
12:00 +1°C° 0.3 mm 10 m/s 738 mmHg 81%
13:00 +2°C° 0.3 mm 10 m/s 738 mmHg 82%
14:00 +3°C° 0 mm 9 m/s 737 mmHg 79%
15:00 +5°C° 0 mm 9 m/s 737 mmHg 75%
16:00 +6°C° 0 mm 8 m/s 737 mmHg 72%
17:00 +6°C° 0 mm 9 m/s 736 mmHg 72%
18:00 +6°C° 0 mm 9 m/s 736 mmHg 73%
19:00 +6°C° 0 mm 10 m/s 736 mmHg 73%
20:00 +6°C° 0.1 mm 10 m/s 736 mmHg 74%
21:00 +5°C° 0.1 mm 10 m/s 736 mmHg 75%
22:00 +5°C° 0.1 mm 10 m/s 736 mmHg 76%
23:00 +5°C° 0.6 mm 9 m/s 736 mmHg 79%

12 Martie, Vineri

Timp Temperatura Precipitaţii Vânt Presiune Umiditate
00:00 +5°C° 0.6 mm 8 m/s 736 mmHg 82%
01:00 +5°C° 0.6 mm 7 m/s 736 mmHg 85%
02:00 +4°C° 0.1 mm 6 m/s 736 mmHg 83%
03:00 +4°C° 0.1 mm 6 m/s 736 mmHg 81%
04:00 +4°C° 0.1 mm 6 m/s 735 mmHg 79%
05:00 +4°C° 0 mm 6 m/s 735 mmHg 80%
06:00 +4°C° 0 mm 6 m/s 735 mmHg 80%
07:00 +4°C° 0 mm 6 m/s 735 mmHg 81%
08:00 +4°C° 0.1 mm 7 m/s 735 mmHg 77%
09:00 +5°C° 0.1 mm 8 m/s 735 mmHg 73%
10:00 +5°C° 0.1 mm 9 m/s 735 mmHg 69%
11:00 +6°C° 0.1 mm 9 m/s 735 mmHg 62%
12:00 +7°C° 0.1 mm 9 m/s 735 mmHg 54%
13:00 +8°C° 0.1 mm 10 m/s 735 mmHg 46%
14:00 +8°C° 0.1 mm 9 m/s 735 mmHg 47%
15:00 +8°C° 0.1 mm 9 m/s 735 mmHg 48%
16:00 +7°C° 0.1 mm 9 m/s 735 mmHg 50%
17:00 +6°C° 0 mm 7 m/s 735 mmHg 55%
18:00 +5°C° 0 mm 6 m/s 736 mmHg 60%
19:00 +5°C° 0 mm 5 m/s 736 mmHg 65%
20:00 +5°C° 0 mm 5 m/s 736 mmHg 67%
21:00 +5°C° 0 mm 5 m/s 737 mmHg 69%
22:00 +3°C° 0 mm 5 m/s 737 mmHg 71%
23:00 +3°C° 0 mm 5 m/s 737 mmHg 71%
Arată mai mult

Formular de consimțământ

Meteoprog și furnizorii noștri de servicii pot stoca și accesa date personale, precum cookies, identificatori de dispozitiv sau alte tehnologii similare pe dispozitivul dumneavoastră și procesa astfel de date pentru a personaliza conținutul și reclamele, dar și pentru a oferi caracteristici de social media și pentru a analiza traficul.

  • Stocarea și/sau accesarea informațiilor pe dispozitivul dumneavoastră

    Cookies, identificatori de dispozitiv sau alte informații pot fi stocate sau accesate pe dispozitiv în scopurile indicate mai sus.

  • Reclame și conținut personalizat, evaluarea reclamelor și a conținutului, informații despre audiențe și dezvoltarea produselor

    Reclamele și conținutul pot fi personalizate pe baza unui profil. Pot fi adăugate date suplimentare pentru a personaliza mai bine reclamele și conținutul. Performanța reclamelor și conținutului poate fi măsurată. Pot fi obținute informații despre utilizatorii care au văzut reclamele și conținutul. Aceste date pot fi utilizate pentru a dezvolta sau îmbunătăți experiența utilizatorilor, sistemele și software-ul.

Dând clic pe ‘Sunt de acord’, permiteți utilizarea cookie-urilor menționate, a identificatorilor de dispozitiv, balizelor web sau altor tehnologii similare. Setările pot fi modificate din browser-ul dispozitivului dumneavoastră.

În anumite scopuri, interesele legitime pot prima asupra consimțământului. Puteți citi mai multe informații în acest sens în Politica privind Confidențialitatea Datelor și Cookie.